Time,TemperatureF,DewpointF,PressureIn,WindDirection,WindDirectionDegrees,WindSpeedMPH,WindSpeedGustMPH,Humidity,HourlyPrecipIn,Conditions,Clouds,dailyrainin,SoftwareType,DateUTC
2013-03-24 00:00:00,27.3,20.4,29.76,NW,315,6.0,6.0,75,0.00,,,0.00,Wunderground v.1.15,2013-03-24 04:00:00,
2013-03-24 00:01:00,27.3,20.4,29.76,NW,323,8.0,8.0,75,0.00,,,0.00,Wunderground v.1.15,2013-03-24 04:01:00,
2013-03-24 00:04:00,27.2,20.3,29.76,WNW,302,4.0,8.0,75,0.00,,,0.00,Wunderground v.1.15,2013-03-24 04:04:00,
2013-03-24 00:07:00,27.3,20.4,29.76,West,267,5.0,8.0,75,0.00,,,0.00,Wunderground v.1.15,2013-03-24 04:07:00,
2013-03-24 00:13:00,27.1,20.5,29.76,WNW,297,5.0,13.0,76,0.00,,,0.00,Wunderground v.1.15,2013-03-24 04:13:00,
2013-03-24 00:19:00,27.0,20.4,29.76,NW,312,8.0,8.0,76,0.00,,,0.00,Wunderground v.1.15,2013-03-24 04:19:00,
2013-03-24 00:24:00,26.9,20.7,29.76,NNW,332,2.0,8.0,77,0.00,,,0.00,Wunderground v.1.15,2013-03-24 04:24:00,
2013-03-24 00:29:00,26.9,21.0,29.76,NW,306,5.0,5.0,78,0.00,,,0.00,Wunderground v.1.15,2013-03-24 04:29:00,
2013-03-24 00:35:00,26.8,20.9,29.76,NW,311,2.0,7.0,78,0.00,,,0.00,Wunderground v.1.15,2013-03-24 04:35:00,
2013-03-24 00:40:00,26.7,21.1,29.76,NNW,328,4.0,10.0,79,0.00,,,0.00,Wunderground v.1.15,2013-03-24 04:40:00,
2013-03-24 00:46:00,26.6,21.3,29.76,WNW,301,2.0,10.0,80,0.00,,,0.00,Wunderground v.1.15,2013-03-24 04:46:00,
2013-03-24 00:52:00,26.5,21.2,29.76,West,264,4.0,5.0,80,0.00,,,0.00,Wunderground v.1.15,2013-03-24 04:52:00,
2013-03-24 00:58:00,26.4,21.1,29.75,NNW,336,7.0,7.0,80,0.00,,,0.00,Wunderground v.1.15,2013-03-24 04:58:00,
2013-03-24 01:04:00,26.4,20.8,29.76,NW,307,7.0,7.0,79,0.00,,,0.00,Wunderground v.1.15,2013-03-24 05:04:00,
2013-03-24 01:09:00,26.3,20.7,29.76,WNW,290,4.0,4.0,79,0.00,,,0.00,Wunderground v.1.15,2013-03-24 05:09:00,
2013-03-24 01:15:00,26.3,20.7,29.76,NW,319,4.0,5.0,79,0.00,,,0.00,Wunderground v.1.15,2013-03-24 05:15:00,
2013-03-24 01:21:00,26.3,21.0,29.76,NW,321,4.0,5.0,80,0.00,,,0.00,Wunderground v.1.15,2013-03-24 05:21:00,
2013-03-24 01:27:00,26.3,21.0,29.76,NNW,337,4.0,6.0,80,0.00,,,0.00,Wunderground v.1.15,2013-03-24 05:27:00,
2013-03-24 01:32:00,26.3,21.0,29.76,WSW,257,5.0,5.0,80,0.00,,,0.00,Wunderground v.1.15,2013-03-24 05:32:00,
2013-03-24 01:37:00,26.3,21.0,29.76,NW,316,2.0,5.0,80,0.00,,,0.00,Wunderground v.1.15,2013-03-24 05:37:00,
2013-03-24 01:43:00,26.2,20.9,29.76,NW,315,5.0,5.0,80,0.00,,,0.00,Wunderground v.1.15,2013-03-24 05:43:00,
2013-03-24 01:48:00,26.2,20.9,29.76,NNW,327,3.0,5.0,80,0.00,,,0.00,Wunderground v.1.15,2013-03-24 05:48:00,
2013-03-24 01:54:00,26.2,20.9,29.76,WNW,302,3.0,7.0,80,0.00,,,0.00,Wunderground v.1.15,2013-03-24 05:54:00,
2013-03-24 02:00:00,26.3,21.0,29.76,West,277,2.0,2.0,80,0.00,,,0.00,Wunderground v.1.15,2013-03-24 06:00:00,
2013-03-24 02:05:00,26.2,21.2,29.77,West,276,1.0,8.0,81,0.00,,,0.00,Wunderground v.1.15,2013-03-24 06:05:00,
2013-03-24 02:10:00,26.2,21.2,29.76,WNW,298,4.0,5.0,81,0.00,,,0.00,Wunderground v.1.15,2013-03-24 06:10:00,
2013-03-24 02:15:00,26.2,21.2,29.77,WNW,301,1.0,6.0,81,0.00,,,0.00,Wunderground v.1.15,2013-03-24 06:15:00,
2013-03-24 02:20:00,26.2,21.2,29.77,NW,313,1.0,5.0,81,0.00,,,0.00,Wunderground v.1.15,2013-03-24 06:20:00,
2013-03-24 02:25:00,26.2,21.2,29.77,NNW,329,4.0,11.0,81,0.00,,,0.00,Wunderground v.1.15,2013-03-24 06:25:00,
2013-03-24 02:30:00,26.2,21.2,29.77,NNW,329,4.0,5.0,81,0.00,,,0.00,Wunderground v.1.15,2013-03-24 06:30:00,
2013-03-24 02:35:00,26.2,21.2,29.77,WNW,297,3.0,8.0,81,0.00,,,0.00,Wunderground v.1.15,2013-03-24 06:35:00,
2013-03-24 02:40:00,26.1,21.4,29.77,WNW,302,1.0,3.0,82,0.00,,,0.00,Wunderground v.1.15,2013-03-24 06:40:00,
2013-03-24 02:45:00,26.1,21.4,29.76,NW,306,2.0,5.0,82,0.00,,,0.00,Wunderground v.1.15,2013-03-24 06:45:00,
2013-03-24 02:50:00,26.1,21.4,29.76,NW,319,4.0,5.0,82,0.00,,,0.00,Wunderground v.1.15,2013-03-24 06:50:00,
2013-03-24 02:55:00,26.1,21.4,29.76,WNW,287,4.0,6.0,82,0.00,,,0.00,Wunderground v.1.15,2013-03-24 06:55:00,
2013-03-24 03:00:00,26.1,21.4,29.76,West,260,1.0,3.0,82,0.00,,,0.00,Wunderground v.1.15,2013-03-24 07:00:00,
2013-03-24 03:05:00,26.1,21.4,29.76,WNW,299,3.0,6.0,82,0.00,,,0.00,Wunderground v.1.15,2013-03-24 07:05:00,
2013-03-24 03:10:00,26.1,21.4,29.76,SW,233,0.0,4.0,82,0.00,,,0.00,Wunderground v.1.15,2013-03-24 07:10:00,
2013-03-24 03:15:00,26.1,21.6,29.76,WNW,284,2.0,4.0,83,0.00,,,0.00,Wunderground v.1.15,2013-03-24 07:15:00,
2013-03-24 03:20:00,26.0,21.5,29.75,WNW,290,3.0,7.0,83,0.00,,,0.00,Wunderground v.1.15,2013-03-24 07:20:00,
2013-03-24 03:25:00,26.0,21.8,29.75,NNW,342,2.0,7.0,84,0.00,,,0.00,Wunderground v.1.15,2013-03-24 07:25:00,
2013-03-24 03:30:00,25.9,21.7,29.75,NW,314,2.0,4.0,84,0.00,,,0.00,Wunderground v.1.15,2013-03-24 07:30:00,
2013-03-24 03:35:00,25.9,21.7,29.76,WNW,294,2.0,5.0,84,0.00,,,0.00,Wunderground v.1.15,2013-03-24 07:35:00,
2013-03-24 03:40:00,25.8,21.6,29.75,WNW,290,1.0,5.0,84,0.00,,,0.00,Wunderground v.1.15,2013-03-24 07:40:00,
2013-03-24 03:45:00,25.7,21.8,29.75,WNW,289,1.0,5.0,85,0.00,,,0.00,Wunderground v.1.15,2013-03-24 07:45:00,
2013-03-24 03:50:00,25.7,21.8,29.75,NW,321,0.0,3.0,85,0.00,,,0.00,Wunderground v.1.15,2013-03-24 07:50:00,
2013-03-24 03:55:00,25.7,21.8,29.75,WSW,245,2.0,3.0,85,0.00,,,0.00,Wunderground v.1.15,2013-03-24 07:55:00,
2013-03-24 04:01:00,25.7,21.8,29.75,WNW,293,1.0,2.0,85,0.00,,,0.00,Wunderground v.1.15,2013-03-24 08:01:00,
2013-03-24 04:05:00,25.6,22.0,29.75,NW,304,1.0,4.0,86,0.00,,,0.00,Wunderground v.1.15,2013-03-24 08:05:00,
2013-03-24 04:10:00,25.5,21.9,29.75,WNW,298,1.0,3.0,86,0.00,,,0.00,Wunderground v.1.15,2013-03-24 08:10:00,
2013-03-24 04:15:00,25.5,21.9,29.75,WNW,298,1.0,5.0,86,0.00,,,0.00,Wunderground v.1.15,2013-03-24 08:15:00,
2013-03-24 04:20:00,25.4,21.8,29.75,NW,308,2.0,5.0,86,0.00,,,0.00,Wunderground v.1.15,2013-03-24 08:20:00,
2013-03-24 04:25:00,25.4,21.8,29.75,NW,304,2.0,5.0,86,0.00,,,0.00,Wunderground v.1.15,2013-03-24 08:25:00,
2013-03-24 04:30:00,25.4,21.8,29.75,NW,307,3.0,5.0,86,0.00,,,0.00,Wunderground v.1.15,2013-03-24 08:30:00,
2013-03-24 04:36:00,25.4,21.8,29.75,WNW,287,3.0,5.0,86,0.00,,,0.00,Wunderground v.1.15,2013-03-24 08:36:00,
2013-03-24 04:41:00,25.4,21.8,29.75,West,266,2.0,3.0,86,0.00,,,0.00,Wunderground v.1.15,2013-03-24 08:41:00,
2013-03-24 04:46:00,25.4,21.5,29.75,NW,308,4.0,7.0,85,0.00,,,0.00,Wunderground v.1.15,2013-03-24 08:46:00,
2013-03-24 04:51:00,25.5,21.6,29.75,North,350,3.0,5.0,85,0.00,,,0.00,Wunderground v.1.15,2013-03-24 08:51:00,
2013-03-24 04:56:00,25.5,21.3,29.75,West,260,2.0,5.0,84,0.00,,,0.00,Wunderground v.1.15,2013-03-24 08:56:00,
2013-03-24 05:01:00,25.6,21.4,29.75,NW,304,0.0,3.0,84,0.00,,,0.00,Wunderground v.1.15,2013-03-24 09:01:00,
2013-03-24 05:06:00,25.5,21.3,29.75,WNW,301,2.0,3.0,84,0.00,,,0.00,Wunderground v.1.15,2013-03-24 09:06:00,
2013-03-24 05:11:00,25.4,21.2,29.75,WNW,298,1.0,1.0,84,0.00,,,0.00,Wunderground v.1.15,2013-03-24 09:11:00,
2013-03-24 05:16:00,25.4,21.2,29.75,NW,307,1.0,2.0,84,0.00,,,0.00,Wunderground v.1.15,2013-03-24 09:16:00,
2013-03-24 05:21:00,25.4,21.2,29.75,NW,326,1.0,2.0,84,0.00,,,0.00,Wunderground v.1.15,2013-03-24 09:21:00,
2013-03-24 05:26:00,25.4,21.2,29.75,West,262,1.0,4.0,84,0.00,,,0.00,Wunderground v.1.15,2013-03-24 09:26:00,
2013-03-24 05:31:00,25.4,21.2,29.75,WSW,240,0.0,1.0,84,0.00,,,0.00,Wunderground v.1.15,2013-03-24 09:31:00,
2013-03-24 05:36:00,25.4,21.2,29.75,NW,307,3.0,3.0,84,0.00,,,0.00,Wunderground v.1.15,2013-03-24 09:36:00,
2013-03-24 05:41:00,25.4,21.2,29.75,WSW,253,1.0,3.0,84,0.00,,,0.00,Wunderground v.1.15,2013-03-24 09:41:00,
2013-03-24 05:46:00,25.4,21.2,29.75,WNW,285,0.0,3.0,84,0.00,,,0.00,Wunderground v.1.15,2013-03-24 09:46:00,
2013-03-24 05:51:00,25.4,21.0,29.75,NW,315,2.0,5.0,83,0.00,,,0.00,Wunderground v.1.15,2013-03-24 09:51:00,
2013-03-24 05:56:00,25.5,21.1,29.75,West,262,2.0,8.0,83,0.00,,,0.00,Wunderground v.1.15,2013-03-24 09:56:00,
2013-03-24 06:02:00,25.6,20.9,29.75,WNW,299,2.0,2.0,82,0.00,,,0.00,Wunderground v.1.15,2013-03-24 10:02:00,
2013-03-24 06:07:00,25.6,20.9,29.75,WNW,287,1.0,4.0,82,0.00,,,0.00,Wunderground v.1.15,2013-03-24 10:07:00,
2013-03-24 06:12:00,25.7,21.0,29.75,WNW,302,1.0,3.0,82,0.00,,,0.00,Wunderground v.1.15,2013-03-24 10:12:00,
2013-03-24 06:17:00,25.6,20.9,29.75,WNW,300,1.0,3.0,82,0.00,,,0.00,Wunderground v.1.15,2013-03-24 10:17:00,
2013-03-24 06:22:00,25.6,20.9,29.75,WNW,292,0.0,3.0,82,0.00,,,0.00,Wunderground v.1.15,2013-03-24 10:22:00,
2013-03-24 06:27:00,25.6,20.9,29.76,NW,304,2.0,3.0,82,0.00,,,0.00,Wunderground v.1.15,2013-03-24 10:27:00,
2013-03-24 06:32:00,25.6,20.6,29.76,West,260,0.0,4.0,81,0.00,,,0.00,Wunderground v.1.15,2013-03-24 10:32:00,
2013-03-24 06:37:00,25.6,20.6,29.77,WNW,299,0.0,4.0,81,0.00,,,0.00,Wunderground v.1.15,2013-03-24 10:37:00,
2013-03-24 06:42:00,25.7,20.7,29.78,West,279,2.0,3.0,81,0.00,,,0.00,Wunderground v.1.15,2013-03-24 10:42:00,
2013-03-24 06:47:00,25.8,20.5,29.78,NW,308,3.0,7.0,80,0.00,,,0.00,Wunderground v.1.15,2013-03-24 10:47:00,
2013-03-24 06:52:00,25.8,20.5,29.79,NW,313,2.0,3.0,80,0.00,,,0.00,Wunderground v.1.15,2013-03-24 10:52:00,
2013-03-24 06:57:00,25.9,20.6,29.79,WNW,291,2.0,4.0,80,0.00,,,0.00,Wunderground v.1.15,2013-03-24 10:57:00,
2013-03-24 07:02:00,25.9,20.6,29.80,West,271,1.0,5.0,80,0.00,,,0.00,Wunderground v.1.15,2013-03-24 11:02:00,
2013-03-24 07:07:00,25.9,20.6,29.81,NW,304,2.0,5.0,80,0.00,,,0.00,Wunderground v.1.15,2013-03-24 11:07:00,
2013-03-24 07:13:00,26.0,20.7,29.81,West,277,2.0,6.0,80,0.00,,,0.00,Wunderground v.1.15,2013-03-24 11:13:00,
2013-03-24 07:18:00,26.0,20.4,29.81,WSW,239,1.0,6.0,79,0.00,,,0.00,Wunderground v.1.15,2013-03-24 11:18:00,
2013-03-24 07:23:00,26.0,20.7,29.81,West,269,1.0,2.0,80,0.00,,,0.00,Wunderground v.1.15,2013-03-24 11:23:00,
2013-03-24 07:28:00,26.1,20.8,29.81,WSW,245,1.0,3.0,80,0.00,,,0.00,Wunderground v.1.15,2013-03-24 11:28:00,
2013-03-24 07:33:00,26.1,20.5,29.81,WNW,283,2.0,3.0,79,0.00,,,0.00,Wunderground v.1.15,2013-03-24 11:33:00,
2013-03-24 07:38:00,26.2,20.6,29.81,WSW,258,6.0,8.0,79,0.00,,,0.00,Wunderground v.1.15,2013-03-24 11:38:00,
2013-03-24 07:43:00,26.3,20.7,29.81,West,270,3.0,8.0,79,0.00,,,0.00,Wunderground v.1.15,2013-03-24 11:43:00,
2013-03-24 07:48:00,26.4,20.8,29.81,West,269,4.0,8.0,79,0.00,,,0.00,Wunderground v.1.15,2013-03-24 11:48:00,
2013-03-24 07:53:00,26.5,20.6,29.81,West,278,1.0,8.0,78,0.00,,,0.00,Wunderground v.1.15,2013-03-24 11:53:00,
2013-03-24 07:58:00,26.5,20.6,29.81,SW,217,2.0,8.0,78,0.00,,,0.00,Wunderground v.1.15,2013-03-24 11:58:00,
2013-03-24 08:03:00,26.6,20.7,29.81,NW,307,5.0,7.0,78,0.00,,,0.00,Wunderground v.1.15,2013-03-24 12:03:00,
2013-03-24 08:08:00,26.8,20.9,29.81,WNW,291,2.0,7.0,78,0.00,,,0.00,Wunderground v.1.15,2013-03-24 12:08:00,
2013-03-24 08:13:00,27.0,20.7,29.81,West,270,1.0,6.0,77,0.00,,,0.00,Wunderground v.1.15,2013-03-24 12:13:00,
2013-03-24 08:19:00,27.2,20.9,29.80,West,273,2.0,3.0,77,0.00,,,0.00,Wunderground v.1.15,2013-03-24 12:19:00,
2013-03-24 08:24:00,27.3,20.7,29.80,WNW,287,3.0,10.0,76,0.00,,,0.00,Wunderground v.1.15,2013-03-24 12:24:00,
2013-03-24 08:29:00,27.4,21.1,29.80,WSW,250,1.0,4.0,77,0.00,,,0.00,Wunderground v.1.15,2013-03-24 12:29:00,
2013-03-24 08:34:00,27.4,20.8,29.80,WNW,302,6.0,11.0,76,0.00,,,0.00,Wunderground v.1.15,2013-03-24 12:34:00,
2013-03-24 08:39:00,27.6,21.0,29.79,West,274,4.0,5.0,76,0.00,,,0.00,Wunderground v.1.15,2013-03-24 12:39:00,
2013-03-24 08:44:00,27.8,21.2,29.79,West,278,1.0,6.0,76,0.00,,,0.00,Wunderground v.1.15,2013-03-24 12:44:00,
2013-03-24 08:49:00,28.1,21.5,29.80,WNW,295,6.0,6.0,76,0.00,,,0.00,Wunderground v.1.15,2013-03-24 12:49:00,
2013-03-24 08:54:00,28.1,21.2,29.80,NW,321,4.0,12.0,75,0.00,,,0.00,Wunderground v.1.15,2013-03-24 12:54:00,
2013-03-24 08:59:00,28.0,21.4,29.80,WNW,284,3.0,5.0,76,0.00,,,0.00,Wunderground v.1.15,2013-03-24 12:59:00,
2013-03-24 09:04:00,27.9,21.3,29.80,WNW,283,3.0,11.0,76,0.00,,,0.00,Wunderground v.1.15,2013-03-24 13:04:00,
2013-03-24 09:09:00,28.0,21.1,29.80,NNW,338,5.0,8.0,75,0.00,,,0.00,Wunderground v.1.15,2013-03-24 13:09:00,
2013-03-24 09:14:00,28.0,21.4,29.80,NNW,328,6.0,8.0,76,0.00,,,0.00,Wunderground v.1.15,2013-03-24 13:14:00,
2013-03-24 09:19:00,28.0,21.1,29.80,NNW,334,6.0,8.0,75,0.00,,,0.00,Wunderground v.1.15,2013-03-24 13:19:00,
2013-03-24 09:24:00,28.0,21.1,29.80,West,270,2.0,9.0,75,0.00,,,0.00,Wunderground v.1.15,2013-03-24 13:24:00,
2013-03-24 09:29:00,28.1,21.2,29.79,NW,310,1.0,5.0,75,0.00,,,0.00,Wunderground v.1.15,2013-03-24 13:29:00,
2013-03-24 09:34:00,28.0,21.1,29.80,NW,304,8.0,13.0,75,0.00,,,0.00,Wunderground v.1.15,2013-03-24 13:34:00,
2013-03-24 09:39:00,28.2,21.3,29.80,NW,312,5.0,8.0,75,0.00,,,0.00,Wunderground v.1.15,2013-03-24 13:39:00,
2013-03-24 09:44:00,28.5,21.6,29.80,WSW,246,5.0,8.0,75,0.00,,,0.00,Wunderground v.1.15,2013-03-24 13:44:00,
2013-03-24 09:49:00,28.9,22.0,29.79,NNE,23,6.0,6.0,75,0.00,,,0.00,Wunderground v.1.15,2013-03-24 13:49:00,
2013-03-24 09:54:00,29.0,21.7,29.79,NW,312,2.0,10.0,74,0.00,,,0.00,Wunderground v.1.15,2013-03-24 13:54:00,
2013-03-24 09:59:00,28.9,22.0,29.79,NW,326,5.0,8.0,75,0.00,,,0.00,Wunderground v.1.15,2013-03-24 13:59:00,
2013-03-24 10:04:00,29.0,22.1,29.79,North,359,3.0,12.0,75,0.00,,,0.00,Wunderground v.1.15,2013-03-24 14:04:00,
2013-03-24 10:09:00,29.0,21.7,29.80,NW,315,7.0,8.0,74,0.00,,,0.00,Wunderground v.1.15,2013-03-24 14:09:00,
2013-03-24 10:14:00,29.0,21.7,29.80,WNW,301,15.0,15.0,74,0.00,,,0.00,Wunderground v.1.15,2013-03-24 14:14:00,
2013-03-24 10:19:00,28.9,21.7,29.80,WNW,288,3.0,6.0,74,0.00,,,0.00,Wunderground v.1.15,2013-03-24 14:19:00,
2013-03-24 10:24:00,29.1,21.5,29.79,North,6,7.0,12.0,73,0.00,,,0.00,Wunderground v.1.15,2013-03-24 14:24:00,
2013-03-24 10:29:00,29.2,21.9,29.80,WNW,287,6.0,8.0,74,0.00,,,0.00,Wunderground v.1.15,2013-03-24 14:29:00,
2013-03-24 10:34:00,29.2,21.9,29.80,West,276,4.0,11.0,74,0.00,,,0.00,Wunderground v.1.15,2013-03-24 14:34:00,
2013-03-24 10:39:00,29.5,22.2,29.79,NW,314,1.0,6.0,74,0.00,,,0.00,Wunderground v.1.15,2013-03-24 14:39:00,
2013-03-24 10:45:00,29.7,22.1,29.79,WNW,293,4.0,10.0,73,0.00,,,0.00,Wunderground v.1.15,2013-03-24 14:45:00,
2013-03-24 10:50:00,29.8,21.9,29.79,NW,309,4.0,9.0,72,0.00,,,0.00,Wunderground v.1.15,2013-03-24 14:50:00,
2013-03-24 10:55:00,29.8,21.2,29.80,NW,312,8.0,12.0,70,0.00,,,0.00,Wunderground v.1.15,2013-03-24 14:55:00,
2013-03-24 11:00:00,29.8,21.5,29.80,WNW,295,2.0,2.0,71,0.00,,,0.00,Wunderground v.1.15,2013-03-24 15:00:00,
2013-03-24 11:05:00,29.9,22.0,29.81,WNW,302,5.0,9.0,72,0.00,,,0.00,Wunderground v.1.15,2013-03-24 15:05:00,
2013-03-24 11:10:00,30.0,22.1,29.80,West,277,4.0,11.0,72,0.00,,,0.00,Wunderground v.1.15,2013-03-24 15:10:00,
2013-03-24 11:15:00,29.9,22.3,29.80,NW,312,1.0,11.0,73,0.00,,,0.00,Wunderground v.1.15,2013-03-24 15:15:00,
2013-03-24 11:20:00,30.0,22.1,29.79,NW,305,6.0,7.0,72,0.00,,,0.00,Wunderground v.1.15,2013-03-24 15:20:00,
2013-03-24 11:25:00,29.9,22.0,29.79,NW,304,7.0,10.0,72,0.00,,,0.00,Wunderground v.1.15,2013-03-24 15:25:00,
2013-03-24 11:30:00,29.9,22.0,29.80,NW,305,6.0,7.0,72,0.00,,,0.00,Wunderground v.1.15,2013-03-24 15:30:00,
2013-03-24 11:35:00,29.8,21.9,29.81,West,269,4.0,10.0,72,0.00,,,0.00,Wunderground v.1.15,2013-03-24 15:35:00,
2013-03-24 11:40:00,30.1,21.8,29.80,NW,315,3.0,6.0,71,0.00,,,0.00,Wunderground v.1.15,2013-03-24 15:40:00,
2013-03-24 11:45:00,30.3,21.7,29.80,NW,312,4.0,12.0,70,0.00,,,0.00,Wunderground v.1.15,2013-03-24 15:45:00,
2013-03-24 11:50:00,30.6,22.0,29.80,WNW,298,3.0,6.0,70,0.00,,,0.00,Wunderground v.1.15,2013-03-24 15:50:00,
2013-03-24 11:55:00,30.5,21.9,29.80,West,261,13.0,14.0,70,0.00,,,0.00,Wunderground v.1.15,2013-03-24 15:55:00,
2013-03-24 12:00:00,30.5,21.9,29.80,NW,321,4.0,6.0,70,0.00,,,0.00,Wunderground v.1.15,2013-03-24 16:00:00,
2013-03-24 12:05:00,30.7,21.7,29.80,NW,321,5.0,10.0,69,0.00,,,0.00,Wunderground v.1.15,2013-03-24 16:05:00,
2013-03-24 12:10:00,30.7,21.7,29.80,West,271,4.0,10.0,69,0.00,,,0.00,Wunderground v.1.15,2013-03-24 16:10:00,
2013-03-24 12:16:00,30.6,21.6,29.80,WNW,297,4.0,10.0,69,0.00,,,0.00,Wunderground v.1.15,2013-03-24 16:16:00,
2013-03-24 12:21:00,30.7,22.1,29.81,NW,318,8.0,9.0,70,0.00,,,0.00,Wunderground v.1.15,2013-03-24 16:21:00,
2013-03-24 12:26:00,30.6,22.0,29.81,NW,308,5.0,9.0,70,0.00,,,0.00,Wunderground v.1.15,2013-03-24 16:26:00,
2013-03-24 12:31:00,30.4,22.1,29.81,NNW,327,6.0,13.0,71,0.00,,,0.00,Wunderground v.1.15,2013-03-24 16:31:00,
2013-03-24 12:36:00,30.3,22.0,29.80,NNW,329,3.0,13.0,71,0.00,,,0.00,Wunderground v.1.15,2013-03-24 16:36:00,
2013-03-24 12:41:00,30.3,21.7,29.80,WNW,285,7.0,11.0,70,0.00,,,0.00,Wunderground v.1.15,2013-03-24 16:41:00,
2013-03-24 12:46:00,30.4,21.8,29.80,NW,321,4.0,11.0,70,0.00,,,0.00,Wunderground v.1.15,2013-03-24 16:46:00,
2013-03-24 12:51:00,30.5,21.5,29.80,WNW,302,2.0,6.0,69,0.00,,,0.00,Wunderground v.1.15,2013-03-24 16:51:00,
2013-03-24 12:56:00,30.6,22.0,29.80,NNW,330,6.0,16.0,70,0.00,,,0.00,Wunderground v.1.15,2013-03-24 16:56:00,
2013-03-24 13:01:00,30.5,21.9,29.80,NW,316,6.0,9.0,70,0.00,,,0.00,Wunderground v.1.15,2013-03-24 17:01:00,
2013-03-24 13:06:00,30.5,21.9,29.80,NW,323,6.0,9.0,70,0.00,,,0.00,Wunderground v.1.15,2013-03-24 17:06:00,
2013-03-24 13:12:00,30.5,21.9,29.80,NW,315,3.0,7.0,70,0.00,,,0.00,Wunderground v.1.15,2013-03-24 17:12:00,
2013-03-24 13:17:00,30.6,21.6,29.81,NNW,346,3.0,9.0,69,0.00,,,0.00,Wunderground v.1.15,2013-03-24 17:17:00,
2013-03-24 13:22:00,30.7,22.1,29.80,West,269,10.0,10.0,70,0.00,,,0.00,Wunderground v.1.15,2013-03-24 17:22:00,
2013-03-24 13:27:00,30.6,22.0,29.80,WNW,290,6.0,14.0,70,0.00,,,0.00,Wunderground v.1.15,2013-03-24 17:27:00,
2013-03-24 13:32:00,30.7,21.7,29.79,North,349,3.0,9.0,69,0.00,,,0.00,Wunderground v.1.15,2013-03-24 17:32:00,
2013-03-24 13:37:00,31.1,22.1,29.79,NW,307,3.0,9.0,69,0.00,,,0.00,Wunderground v.1.15,2013-03-24 17:37:00,
2013-03-24 13:42:00,31.3,22.0,29.79,West,276,7.0,11.0,68,0.00,,,0.00,Wunderground v.1.15,2013-03-24 17:42:00,
2013-03-24 13:47:00,31.3,22.0,29.78,NW,314,4.0,11.0,68,0.00,,,0.00,Wunderground v.1.15,2013-03-24 17:47:00,
2013-03-24 13:52:00,31.5,21.8,29.79,WSW,253,3.0,8.0,67,0.00,,,0.00,Wunderground v.1.15,2013-03-24 17:52:00,
2013-03-24 13:57:00,31.6,21.9,29.78,NNW,334,2.0,12.0,67,0.00,,,0.00,Wunderground v.1.15,2013-03-24 17:57:00,
2013-03-24 14:02:00,32.1,22.0,29.78,NNW,329,3.0,7.0,66,0.00,,,0.00,Wunderground v.1.15,2013-03-24 18:02:00,
2013-03-24 14:08:00,32.3,22.2,29.78,North,1,5.0,10.0,66,0.00,,,0.00,Wunderground v.1.15,2013-03-24 18:08:00,
2013-03-24 14:13:00,32.5,22.4,29.78,West,271,6.0,9.0,66,0.00,,,0.00,Wunderground v.1.15,2013-03-24 18:13:00,
2013-03-24 14:18:00,32.6,22.1,29.78,NW,321,2.0,9.0,65,0.00,,,0.00,Wunderground v.1.15,2013-03-24 18:18:00,
2013-03-24 14:23:00,32.5,22.4,29.78,North,355,7.0,7.0,66,0.00,,,0.00,Wunderground v.1.15,2013-03-24 18:23:00,
2013-03-24 14:28:00,32.7,22.2,29.78,NNW,337,1.0,10.0,65,0.00,,,0.00,Wunderground v.1.15,2013-03-24 18:28:00,
2013-03-24 14:33:00,32.8,21.6,29.78,NW,314,9.0,9.0,63,0.00,,,0.00,Wunderground v.1.15,2013-03-24 18:33:00,
2013-03-24 14:38:00,32.8,22.0,29.78,SW,222,2.0,9.0,64,0.00,,,0.00,Wunderground v.1.15,2013-03-24 18:38:00,
2013-03-24 14:43:00,32.7,21.9,29.78,NW,316,12.0,12.0,64,0.00,,,0.00,Wunderground v.1.15,2013-03-24 18:43:00,
2013-03-24 14:48:00,32.9,22.0,29.78,WNW,292,8.0,12.0,64,0.00,,,0.00,Wunderground v.1.15,2013-03-24 18:48:00,
2013-03-24 14:53:00,32.9,22.0,29.77,WNW,298,5.0,10.0,64,0.00,,,0.00,Wunderground v.1.15,2013-03-24 18:53:00,
2013-03-24 14:59:00,32.9,22.0,29.77,NW,304,9.0,9.0,64,0.00,,,0.00,Wunderground v.1.15,2013-03-24 18:59:00,
2013-03-24 15:04:00,32.8,22.3,29.77,NW,305,9.0,12.0,65,0.00,,,0.00,Wunderground v.1.15,2013-03-24 19:04:00,
2013-03-24 15:09:00,32.7,22.2,29.77,NW,311,4.0,6.0,65,0.00,,,0.00,Wunderground v.1.15,2013-03-24 19:09:00,
2013-03-24 15:14:00,33.0,22.5,29.77,NW,309,6.0,11.0,65,0.00,,,0.00,Wunderground v.1.15,2013-03-24 19:14:00,
2013-03-24 15:19:00,33.4,22.5,29.76,WNW,293,8.0,8.0,64,0.00,,,0.00,Wunderground v.1.15,2013-03-24 19:19:00,
2013-03-24 15:24:00,33.3,22.4,29.76,WNW,298,3.0,10.0,64,0.00,,,0.00,Wunderground v.1.15,2013-03-24 19:24:00,
2013-03-24 15:29:00,33.5,22.2,29.76,West,276,10.0,10.0,63,0.00,,,0.00,Wunderground v.1.15,2013-03-24 19:29:00,
2013-03-24 15:34:00,33.5,22.2,29.75,NW,318,4.0,11.0,63,0.00,,,0.00,Wunderground v.1.15,2013-03-24 19:34:00,
2013-03-24 15:39:00,33.6,22.3,29.75,North,8,4.0,7.0,63,0.00,,,0.00,Wunderground v.1.15,2013-03-24 19:39:00,
2013-03-24 15:44:00,34.0,22.7,29.75,West,260,2.0,8.0,63,0.00,,,0.00,Wunderground v.1.15,2013-03-24 19:44:00,
2013-03-24 15:49:00,34.2,22.1,29.75,NNW,335,5.0,6.0,61,0.00,,,0.00,Wunderground v.1.15,2013-03-24 19:49:00,
2013-03-24 15:54:00,33.9,21.9,29.74,NW,316,9.0,12.0,61,0.00,,,0.00,Wunderground v.1.15,2013-03-24 19:54:00,
2013-03-24 15:59:00,33.7,22.1,29.75,NNW,327,6.0,6.0,62,0.00,,,0.00,Wunderground v.1.15,2013-03-24 19:59:00,
2013-03-24 16:04:00,33.7,22.1,29.75,WNW,284,2.0,7.0,62,0.00,,,0.00,Wunderground v.1.15,2013-03-24 20:04:00,
2013-03-24 16:09:00,33.8,21.8,29.74,NW,315,4.0,7.0,61,0.00,,,0.00,Wunderground v.1.15,2013-03-24 20:09:00,
2013-03-24 16:14:00,33.7,22.1,29.74,SW,236,2.0,12.0,62,0.00,,,0.00,Wunderground v.1.15,2013-03-24 20:14:00,
2013-03-24 16:20:00,33.8,22.1,29.74,North,356,10.0,10.0,62,0.00,,,0.00,Wunderground v.1.15,2013-03-24 20:20:00,
2013-03-24 16:25:00,33.7,22.1,29.74,WNW,288,5.0,10.0,62,0.00,,,0.00,Wunderground v.1.15,2013-03-24 20:25:00,
2013-03-24 16:30:00,33.8,22.5,29.73,WNW,289,0.0,5.0,63,0.00,,,0.00,Wunderground v.1.15,2013-03-24 20:30:00,
2013-03-24 16:35:00,34.0,22.3,29.73,NW,315,1.0,8.0,62,0.00,,,0.00,Wunderground v.1.15,2013-03-24 20:35:00,
2013-03-24 16:40:00,34.1,22.0,29.73,WNW,298,2.0,7.0,61,0.00,,,0.00,Wunderground v.1.15,2013-03-24 20:40:00,
2013-03-24 16:45:00,34.0,22.3,29.73,North,1,5.0,10.0,62,0.00,,,0.00,Wunderground v.1.15,2013-03-24 20:45:00,
2013-03-24 16:50:00,33.8,22.1,29.73,WNW,288,5.0,10.0,62,0.00,,,0.00,Wunderground v.1.15,2013-03-24 20:50:00,
2013-03-24 16:55:00,34.2,22.5,29.73,WNW,290,9.0,10.0,62,0.00,,,0.00,Wunderground v.1.15,2013-03-24 20:55:00,
2013-03-24 17:00:00,34.3,22.6,29.73,NW,314,4.0,5.0,62,0.00,,,0.00,Wunderground v.1.15,2013-03-24 21:00:00,
2013-03-24 17:05:00,33.8,22.5,29.74,NW,312,7.0,10.0,63,0.00,,,0.00,Wunderground v.1.15,2013-03-24 21:05:00,
2013-03-24 17:10:00,33.4,22.5,29.73,NW,305,5.0,5.0,64,0.00,,,0.00,Wunderground v.1.15,2013-03-24 21:10:00,
2013-03-24 17:15:00,33.4,22.9,29.74,NW,308,1.0,7.0,65,0.00,,,0.00,Wunderground v.1.15,2013-03-24 21:15:00,
2013-03-24 17:20:00,33.5,22.6,29.74,NW,305,1.0,3.0,64,0.00,,,0.00,Wunderground v.1.15,2013-03-24 21:20:00,
2013-03-24 17:25:00,33.4,22.5,29.74,NW,312,4.0,7.0,64,0.00,,,0.00,Wunderground v.1.15,2013-03-24 21:25:00,
2013-03-24 17:30:00,33.3,22.1,29.74,WNW,301,2.0,7.0,63,0.00,,,0.00,Wunderground v.1.15,2013-03-24 21:30:00,
2013-03-24 17:35:00,33.2,22.3,29.74,North,351,2.0,9.0,64,0.00,,,0.00,Wunderground v.1.15,2013-03-24 21:35:00,
2013-03-24 17:40:00,33.0,22.5,29.74,WNW,284,2.0,5.0,65,0.00,,,0.00,Wunderground v.1.15,2013-03-24 21:40:00,
2013-03-24 17:45:00,32.9,22.4,29.74,WNW,290,3.0,7.0,65,0.00,,,0.00,Wunderground v.1.15,2013-03-24 21:45:00,
2013-03-24 17:50:00,32.8,22.3,29.74,NE,41,0.0,3.0,65,0.00,,,0.00,Wunderground v.1.15,2013-03-24 21:50:00,
2013-03-24 17:55:00,33.0,22.1,29.74,NW,314,5.0,5.0,64,0.00,,,0.00,Wunderground v.1.15,2013-03-24 21:55:00,
2013-03-24 18:00:00,32.8,22.7,29.74,WSW,256,0.0,2.0,66,0.00,,,0.00,Wunderground v.1.15,2013-03-24 22:00:00,
2013-03-24 18:05:00,32.7,22.2,29.74,NNW,342,2.0,3.0,65,0.00,,,0.00,Wunderground v.1.15,2013-03-24 22:05:00,
2013-03-24 18:10:00,32.7,21.9,29.74,NW,321,6.0,6.0,64,0.00,,,0.00,Wunderground v.1.15,2013-03-24 22:10:00,
2013-03-24 18:15:00,32.7,21.9,29.74,North,3,0.0,6.0,64,0.00,,,0.00,Wunderground v.1.15,2013-03-24 22:15:00,
2013-03-24 18:20:00,32.8,22.0,29.74,NE,36,5.0,5.0,64,0.00,,,0.00,Wunderground v.1.15,2013-03-24 22:20:00,
2013-03-24 18:25:00,32.8,22.0,29.74,North,11,4.0,5.0,64,0.00,,,0.00,Wunderground v.1.15,2013-03-24 22:25:00,
2013-03-24 18:30:00,32.6,21.8,29.74,North,3,1.0,2.0,64,0.00,,,0.00,Wunderground v.1.15,2013-03-24 22:30:00,
2013-03-24 18:35:00,32.4,21.6,29.75,NNW,333,1.0,5.0,64,0.00,,,0.00,Wunderground v.1.15,2013-03-24 22:35:00,
2013-03-24 18:40:00,32.1,21.3,29.75,NNE,30,3.0,7.0,64,0.00,,,0.00,Wunderground v.1.15,2013-03-24 22:40:00,
2013-03-24 18:45:00,31.9,21.5,29.75,NNE,12,1.0,7.0,65,0.00,,,0.00,Wunderground v.1.15,2013-03-24 22:45:00,
2013-03-24 18:50:00,31.7,21.3,29.75,NE,40,2.0,2.0,65,0.00,,,0.00,Wunderground v.1.15,2013-03-24 22:50:00,
2013-03-24 18:55:00,31.7,21.3,29.75,NNW,343,0.0,3.0,65,0.00,,,0.00,Wunderground v.1.15,2013-03-24 22:55:00,
2013-03-24 19:00:00,31.4,21.0,29.76,ENE,65,2.0,4.0,65,0.00,,,0.00,Wunderground v.1.15,2013-03-24 23:00:00,
2013-03-24 19:05:00,31.2,21.2,29.76,East,79,1.0,4.0,66,0.00,,,0.00,Wunderground v.1.15,2013-03-24 23:05:00,
2013-03-24 19:10:00,31.0,21.0,29.76,NNE,23,2.0,3.0,66,0.00,,,0.00,Wunderground v.1.15,2013-03-24 23:10:00,
2013-03-24 19:15:00,30.9,20.9,29.75,NNW,335,1.0,3.0,66,0.00,,,0.00,Wunderground v.1.15,2013-03-24 23:15:00,
2013-03-24 19:20:00,30.6,20.9,29.75,NW,316,2.0,2.0,67,0.00,,,0.00,Wunderground v.1.15,2013-03-24 23:20:00,
2013-03-24 19:25:00,30.4,20.7,29.75,ENE,60,4.0,4.0,67,0.00,,,0.00,Wunderground v.1.15,2013-03-24 23:25:00,
2013-03-24 19:30:00,30.2,20.6,29.75,NNE,24,1.0,2.0,67,0.00,,,0.00,Wunderground v.1.15,2013-03-24 23:30:00,
2013-03-24 19:35:00,30.1,20.8,29.75,NW,313,4.0,10.0,68,0.00,,,0.00,Wunderground v.1.15,2013-03-24 23:35:00,
2013-03-24 19:40:00,30.0,20.4,29.75,NNE,32,3.0,5.0,67,0.00,,,0.00,Wunderground v.1.15,2013-03-24 23:40:00,
2013-03-24 19:45:00,29.8,20.2,29.75,NNW,329,0.0,5.0,67,0.00,,,0.00,Wunderground v.1.15,2013-03-24 23:45:00,
2013-03-24 19:50:00,29.7,20.4,29.76,NNW,328,1.0,4.0,68,0.00,,,0.00,Wunderground v.1.15,2013-03-24 23:50:00,
2013-03-24 19:55:00,29.5,20.6,29.76,ENE,70,0.0,4.0,69,0.00,,,0.00,Wunderground v.1.15,2013-03-24 23:55:00,
2013-03-24 20:00:00,29.0,20.1,29.76,WNW,290,1.0,2.0,69,0.00,,,0.00,Wunderground v.1.15,2013-03-25 00:00:00,
2013-03-24 20:05:00,28.9,20.0,29.76,North,11,0.0,3.0,69,0.00,,,0.00,Wunderground v.1.15,2013-03-25 00:05:00,
2013-03-24 20:10:00,28.8,19.9,29.76,North,353,0.0,3.0,69,0.00,,,0.00,Wunderground v.1.15,2013-03-25 00:10:00,
2013-03-24 20:15:00,28.6,19.7,29.76,North,9,0.0,3.0,69,0.00,,,0.00,Wunderground v.1.15,2013-03-25 00:15:00,
2013-03-24 20:21:00,28.4,19.9,29.76,WSW,242,2.0,2.0,70,0.00,,,0.00,Wunderground v.1.15,2013-03-25 00:21:00,
2013-03-24 20:26:00,28.2,20.0,29.76,NW,325,0.0,2.0,71,0.00,,,0.00,Wunderground v.1.15,2013-03-25 00:26:00,
2013-03-24 20:31:00,28.6,20.1,29.75,NE,34,2.0,3.0,70,0.00,,,0.00,Wunderground v.1.15,2013-03-25 00:31:00,
2013-03-24 20:36:00,28.7,20.5,29.75,NNW,347,2.0,8.0,71,0.00,,,0.00,Wunderground v.1.15,2013-03-25 00:36:00,
2013-03-24 20:41:00,28.6,20.4,29.75,West,262,1.0,2.0,71,0.00,,,0.00,Wunderground v.1.15,2013-03-25 00:41:00,
2013-03-24 20:46:00,28.4,20.2,29.76,WSW,243,2.0,4.0,71,0.00,,,0.00,Wunderground v.1.15,2013-03-25 00:46:00,
2013-03-24 20:51:00,28.3,20.4,29.76,NW,308,1.0,3.0,72,0.00,,,0.00,Wunderground v.1.15,2013-03-25 00:51:00,
2013-03-24 20:57:00,28.2,20.3,29.76,North,8,3.0,6.0,72,0.00,,,0.00,Wunderground v.1.15,2013-03-25 00:57:00,
2013-03-24 21:02:00,28.2,20.3,29.76,NNW,338,4.0,9.0,72,0.00,,,0.00,Wunderground v.1.15,2013-03-25 01:02:00,
2013-03-24 21:07:00,28.1,20.2,29.76,WNW,294,0.0,9.0,72,0.00,,,0.00,Wunderground v.1.15,2013-03-25 01:07:00,
2013-03-24 21:12:00,27.8,20.3,29.76,WNW,287,1.0,2.0,73,0.00,,,0.00,Wunderground v.1.15,2013-03-25 01:12:00,
2013-03-24 21:17:00,27.5,20.0,29.76,NW,308,1.0,3.0,73,0.00,,,0.00,Wunderground v.1.15,2013-03-25 01:17:00,
2013-03-24 21:22:00,27.2,20.0,29.76,NNE,33,0.0,1.0,74,0.00,,,0.00,Wunderground v.1.15,2013-03-25 01:22:00,
2013-03-24 21:27:00,26.9,19.7,29.75,West,276,0.0,2.0,74,0.00,,,0.00,Wunderground v.1.15,2013-03-25 01:27:00,
2013-03-24 21:32:00,26.4,19.5,29.76,WSW,245,2.0,2.0,75,0.00,,,0.00,Wunderground v.1.15,2013-03-25 01:32:00,
2013-03-24 21:37:00,26.1,19.3,29.76,SSW,212,0.0,2.0,75,0.00,,,0.00,Wunderground v.1.15,2013-03-25 01:37:00,
2013-03-24 21:42:00,26.0,19.5,29.76,SW,226,0.0,2.0,76,0.00,,,0.00,Wunderground v.1.15,2013-03-25 01:42:00,
2013-03-24 21:47:00,25.6,19.4,29.75,West,266,1.0,2.0,77,0.00,,,0.00,Wunderground v.1.15,2013-03-25 01:47:00,
2013-03-24 21:52:00,25.4,19.2,29.75,NW,312,0.0,2.0,77,0.00,,,0.00,Wunderground v.1.15,2013-03-25 01:52:00,
2013-03-24 21:57:00,25.4,19.5,29.75,SW,231,1.0,4.0,78,0.00,,,0.00,Wunderground v.1.15,2013-03-25 01:57:00,
2013-03-24 22:02:00,25.9,19.7,29.75,WNW,285,3.0,3.0,77,0.00,,,0.00,Wunderground v.1.15,2013-03-25 02:02:00,
2013-03-24 22:07:00,26.4,19.9,29.75,SSE,163,1.0,4.0,76,0.00,,,0.00,Wunderground v.1.15,2013-03-25 02:07:00,
2013-03-24 22:12:00,25.9,19.4,29.75,NNE,30,5.0,5.0,76,0.00,,,0.00,Wunderground v.1.15,2013-03-25 02:12:00,
2013-03-24 22:17:00,25.9,19.1,29.75,West,260,0.0,5.0,75,0.00,,,0.00,Wunderground v.1.15,2013-03-25 02:17:00,
2013-03-24 22:22:00,25.3,19.1,29.75,WSW,255,1.0,2.0,77,0.00,,,0.00,Wunderground v.1.15,2013-03-25 02:22:00,
2013-03-24 22:27:00,25.1,19.2,29.74,West,280,3.0,4.0,78,0.00,,,0.00,Wunderground v.1.15,2013-03-25 02:27:00,
2013-03-24 22:33:00,25.7,19.5,29.74,WNW,283,1.0,5.0,77,0.00,,,0.00,Wunderground v.1.15,2013-03-25 02:33:00,
2013-03-24 22:38:00,25.1,18.6,29.74,South,177,0.0,5.0,76,0.00,,,0.00,Wunderground v.1.15,2013-03-25 02:38:00,
2013-03-24 22:43:00,25.1,19.2,29.74,West,277,1.0,3.0,78,0.00,,,0.00,Wunderground v.1.15,2013-03-25 02:43:00,
2013-03-24 22:48:00,26.1,19.9,29.74,ESE,104,2.0,6.0,77,0.00,,,0.00,Wunderground v.1.15,2013-03-25 02:48:00,
2013-03-24 22:53:00,26.4,19.5,29.74,SW,228,1.0,4.0,75,0.00,,,0.00,Wunderground v.1.15,2013-03-25 02:53:00,
2013-03-24 22:58:00,26.6,19.7,29.74,East,79,1.0,6.0,75,0.00,,,0.00,Wunderground v.1.15,2013-03-25 02:58:00,
2013-03-24 23:03:00,26.7,19.8,29.74,ENE,78,0.0,4.0,75,0.00,,,0.00,Wunderground v.1.15,2013-03-25 03:03:00,
2013-03-24 23:08:00,26.6,19.7,29.74,South,177,0.0,4.0,75,0.00,,,0.00,Wunderground v.1.15,2013-03-25 03:08:00,
2013-03-24 23:13:00,26.3,19.5,29.74,WSW,243,1.0,2.0,75,0.00,,,0.00,Wunderground v.1.15,2013-03-25 03:13:00,
2013-03-24 23:18:00,26.2,19.7,29.74,WSW,245,1.0,2.0,76,0.00,,,0.00,Wunderground v.1.15,2013-03-25 03:18:00,
2013-03-24 23:24:00,25.9,19.4,29.74,WSW,258,0.0,1.0,76,0.00,,,0.00,Wunderground v.1.15,2013-03-25 03:24:00,
2013-03-24 23:29:00,25.4,19.2,29.74,West,278,0.0,1.0,77,0.00,,,0.00,Wunderground v.1.15,2013-03-25 03:29:00,
2013-03-24 23:34:00,24.6,18.4,29.74,West,281,0.0,1.0,77,0.00,,,0.00,Wunderground v.1.15,2013-03-25 03:34:00,
2013-03-24 23:39:00,23.9,18.0,29.74,West,281,0.0,0.0,78,0.00,,,0.00,Wunderground v.1.15,2013-03-25 03:39:00,
2013-03-24 23:44:00,24.1,18.5,29.74,West,278,0.0,3.0,79,0.00,,,0.00,Wunderground v.1.15,2013-03-25 03:44:00,
2013-03-24 23:49:00,23.6,18.0,29.74,West,262,0.0,1.0,79,0.00,,,0.00,Wunderground v.1.15,2013-03-25 03:49:00,
2013-03-24 23:54:00,23.3,18.0,29.74,West,262,0.0,1.0,80,0.00,,,0.00,Wunderground v.1.15,2013-03-25 03:54:00,
2013-03-24 23:59:00,23.3,18.6,29.74,NW,325,1.0,1.0,82,0.00,,,0.00,Wunderground v.1.15,2013-03-25 03:59:00,